Powrót do katalogu

FENGYUN 1C DEB

AktywnySSO
NORAD 30680·DEBRIS·🇨🇳 China

Wystrzelony May 10, 1999 z Taiyuan Satellite Launch Center

Loading…

Następne Przeloty (najbliższe 24 godziny)

TLE

ŚwieżeSource: Space-Track

Epoka: Sep 14, 2026, 01:43 UTC

1 30680U 99025AQN 26257.07205037  .00003247  00000-0  32910-2 0  9991
2 30680  99.6464 299.5147 0317164 193.0695 166.2082 13.57818629959883

Śledź FENGYUN 1C DEB w czasie rzeczywistym z AllMySat

Download on the App Store